Tracking 19854 objects as of 24-Sep-2019
HD Live streaming from Space Station
objects crossing your sky now

DMSP 5D-2 F11 DEB

Track DMSP 5D-2 F11 DEB now!
10-day predictions


NORAD ID: 28333
Int'l Code: 1991-082AW
Perigee: 767.9 km
Apogee: 785.5 km
Inclination: 98.7 °
Period: 100.2 minutes
Semi major axis: 7147 km
RCS: 0.0092 m2 (small)
Launch date: November 28, 1991
Source: United States (US)
Launch site: AIR FORCE WESTERN TEST RANGE (AFWTR)

Note: This is SATELLITE DEBRIS
aabbcc
Your satellite tracking list
Your tracking list is empty




NASA's NSSDC Master Catalog

Two Line Element Set (TLE):
1 28333U 91082AW  19266.32766411 +.00000813 +00000-0 +29133-3 0  9996
2 28333 098.6549 304.8353 0012295 156.8115 262.6041 14.36655846800281
Source of the keplerian elements: AFSPC